KDAY Airport Diagram

We have created a template for each of the higher traffic airports in the vZID airspace. They include KCMH, KCRW, KCVG, KDAY, KIND, KLEX and KSDF. You wil find usefull information including the airport diagram, weather, and specific airport procedures.

KDAY Weather

[Source: ADDS]
METAR
KDAY 190656Z 21006KT 10SM CLR 04/M01 A3035 RMK AO2 SLP283 T00441006 =
KDAY 190540Z 1906/2006 20005KT P6SM SCT250 FM191700 20010G18KT P6SM BKN250 FM192100 22012G20KT P6SM BKN060 FM192200 22012G20KT P6SM VCSH OVC070 FM200000 23012G22KT P6SM -SHRA OVC025 FM200300 24013G20KT P6SM VCSH OVC015
TAF
KDAY 190540Z 1906/2006 20005KT P6SM SCT250 FM191700 20010G18KT P6SM BKN250 FM192100 22012G20KT P6SM BKN060 FM192200 22012G20KT P6SM VCSH OVC070 FM200000 23012G22KT P6SM -SHRA OVC025 FM200300 24013G20KT P6SM VCSH OVC015 =

KDAY Operations

Approach/Departure operations for KDAY were consolidated into the Columbus TRACON quite some time back. We have recently made that change here at ZID. When arriving/departing the Dayton Airport and airports in the surrounding area, contact with the Columbus APP/DEP controller, if online, should be expected.

Calm Wind Configuration is runways 24L/R. This configuration is used up to and including 10kts.

Runway 24L typically departs south and east, except larger aircraft requiring a longer runway.

Runway 24R typically departs north and west.

 

JSN Epic template designed by JoomlaShine.com